Flag for Netherlands Weather past 2 weeks in Zwolle, Netherlands

Now
39 °F

Clear.


Feels Like: 33 °F
Forecast: 43 / 52 °F
Wind: 9 mph from South

Location: Amsterdam Schiphol Airport

Current Time: Mar 7, 2015 at 2:03:06 AM

Latest Report: Mar 7, 2015 at 1:25 AM


Visibility: 10 mi

Pressure: 30.42 "Hg

Humidity: 93%

Dew point: 37 °F

Location of ZwolleLocation

Historic Weather in Zwolle — Graph

°F

Zwolle temperature yesterday

Maximum temperature yesterday: 48 °F (at 11:25 AM)
Minimum temperature yesterday: 37 °F (at 10:25 PM)
Average temperature yesterday: 44 °F

Past Weeks' High & Low Weather Summary

 TemperatureHumidityPressure
High50 °F (Mar 1, 10:55 AM)100% (Feb 20, 8:25 AM)30.63 "Hg (Feb 20, 8:25 AM)
Low30 °F (Feb 22, 2:25 AM)54% (Feb 23, 3:25 PM)29.24 "Hg (Feb 23, 3:25 AM)
Average41 °F84%29.87 "Hg
* Reported Feb 20 1:25 AM — Mar 7 12:55 AM, Zwolle, Weather by CustomWeather, © 2015

Note: Actual official high and low records may vary slightly from our data, if they occured in-between our weather recording intervals... More about our weather records

Advertising

Zwolle weather history for previous 24 hours

 ConditionsComfort  
Time TempWeatherWind HumidityBarometerVisibility
12:55 AM
Sat, Mar 7
39 °FClear.10 mph93%30.45 "Hg10 mi
12:25 AM39 °FClear.9 mph93%30.45 "Hg10 mi
11:55 PM
Fri, Mar 6
39 °FClear.8 mph87%30.45 "Hg10 mi
11:25 PM37 °FClear.7 mph93%30.48 "Hg10 mi
10:55 PM37 °FClear.7 mph87%30.48 "Hg10 mi
10:25 PM37 °FClear.6 mph93%30.48 "Hg10 mi
9:55 PM39 °FClear.7 mph87%30.45 "Hg10 mi
9:25 PM39 °FClear.8 mph87%30.48 "Hg10 mi
8:55 PM41 °FClear.10 mph87%30.45 "Hg10 mi
8:25 PM41 °FClear.9 mph87%30.48 "Hg10 mi
7:55 PM41 °FClear.9 mph87%30.48 "Hg10 mi
7:25 PM41 °FClear.9 mph81%30.48 "Hg10 mi
6:55 PM41 °FClear.9 mph81%30.48 "Hg10 mi
6:25 PM43 °FSunny.12 mph76%30.48 "Hg10 mi
5:55 PM46 °FPassing clouds.12 mph66%30.51 "HgN/A
5:25 PM46 °FPassing clouds.14 mph66%30.51 "HgN/A
4:55 PM46 °FScattered clouds.15 mph66%30.51 "HgN/A
4:25 PM46 °FPartly sunny.16 mph66%30.51 "HgN/A
3:55 PM46 °FPartly sunny.16 mph66%30.51 "HgN/A
3:25 PM48 °FPartly sunny.15 mph62%30.51 "HgN/A
2:55 PM48 °FPartly sunny.14 mph58%30.51 "HgN/A
2:25 PM48 °FPartly sunny.16 mph58%30.51 "HgN/A
1:55 PM48 °FPartly sunny.13 mph62%30.54 "HgN/A
1:25 PM48 °FPartly sunny.15 mph58%30.54 "HgN/A
12:55 PM48 °FPartly sunny.16 mph62%30.57 "HgN/A
12:25 PM48 °FPartly sunny.14 mph62%30.57 "HgN/A
11:55 AM48 °FOvercast.14 mph66%30.57 "HgN/A
11:25 AM48 °FOvercast.12 mph66%30.57 "HgN/A
10:55 AM46 °FOvercast.13 mph76%30.57 "HgN/A
10:25 AM46 °FOvercast.14 mph76%30.57 "HgN/A
9:55 AM46 °FPartly sunny.13 mph76%30.57 "HgN/A
9:25 AM45 °FOvercast.9 mph81%30.57 "HgN/A
8:55 AM45 °FOvercast.9 mph81%30.57 "HgN/A
8:25 AM45 °FOvercast.10 mph81%30.57 "HgN/A
7:55 AM43 °FOvercast.8 mph87%30.57 "HgN/A
7:25 AM43 °FOvercast.8 mph87%30.57 "HgN/A
6:55 AM43 °FOvercast.8 mph87%30.57 "HgN/A
6:25 AM43 °FOvercast.8 mph87%30.57 "HgN/A
5:55 AM43 °FOvercast.7 mph87%30.57 "HgN/A
5:25 AM43 °FOvercast.8 mph87%30.57 "HgN/A
4:55 AM43 °FOvercast.9 mph87%30.57 "HgN/A
4:25 AM43 °FOvercast.7 mph87%30.57 "HgN/A
3:55 AM43 °FOvercast.7 mph87%30.57 "HgN/A
3:25 AM43 °FOvercast.6 mph87%30.57 "HgN/A
2:55 AM43 °FOvercast.8 mph87%30.57 "HgN/A
2:25 AM43 °FOvercast.8 mph87%30.60 "HgN/A
Weather by CustomWeather, © 2015

See weather overviewHow to use our weather pages